Time,TemperatureF,DewpointF,PressureIn,WindDirection,WindDirectionDegrees,WindSpeedMPH,WindSpeedGustMPH,Humidity,HourlyPrecipIn,Conditions,Clouds,dailyrainin,SoftwareType,DateUTC
2013-05-06 00:02:00,48.0,45.0,30.15,NNW,328,3.0,8.0,90,0.00,,,0.03,,2013-05-06 05:02:00,
2013-05-06 00:12:00,48.0,45.0,30.15,NNW,328,3.0,8.0,90,0.00,,,0.03,,2013-05-06 05:12:00,
2013-05-06 00:22:00,48.0,45.0,30.15,NW,308,4.0,10.0,90,0.00,,,0.03,,2013-05-06 05:22:00,
2013-05-06 00:32:00,48.0,45.0,30.15,NNW,332,4.0,8.0,90,0.00,,,0.02,,2013-05-06 05:32:00,
2013-05-06 00:42:00,48.0,45.0,30.15,NNW,332,4.0,8.0,90,0.00,,,0.02,,2013-05-06 05:42:00,
2013-05-06 00:52:00,48.0,45.0,30.15,NNW,346,1.0,11.0,90,0.00,,,0.02,,2013-05-06 05:52:00,
2013-05-06 01:02:00,48.0,45.0,30.16,NW,320,0.0,8.0,90,0.00,,,0.02,,2013-05-06 06:02:00,
2013-05-06 01:12:00,48.0,45.0,30.16,NW,320,0.0,8.0,90,0.00,,,0.02,,2013-05-06 06:12:00,
2013-05-06 01:21:00,48.0,45.0,30.15,North,5,1.0,7.0,90,0.00,,,0.02,,2013-05-06 06:21:00,
2013-05-06 01:32:00,48.0,45.0,30.15,NNW,348,3.0,9.0,90,0.00,,,0.02,,2013-05-06 06:32:00,
2013-05-06 01:42:00,48.0,45.0,30.15,NNW,348,3.0,9.0,90,0.00,,,0.02,,2013-05-06 06:42:00,
2013-05-06 01:52:00,48.0,45.0,30.14,WNW,301,0.0,7.0,90,0.00,,,0.02,,2013-05-06 06:52:00,
2013-05-06 02:01:00,48.0,45.0,30.14,NNW,336,1.0,6.0,90,0.00,,,0.02,,2013-05-06 07:01:00,
2013-05-06 02:11:00,48.0,45.0,30.14,NNW,336,1.0,6.0,90,0.00,,,0.02,,2013-05-06 07:11:00,
2013-05-06 02:22:00,48.0,45.0,30.13,NNW,342,1.0,6.0,90,0.00,,,0.02,,2013-05-06 07:22:00,
2013-05-06 02:31:00,48.0,45.0,30.13,NNW,329,2.0,10.0,90,0.00,,,0.01,,2013-05-06 07:31:00,
2013-05-06 02:42:00,48.0,45.0,30.13,NNW,329,2.0,10.0,90,0.00,,,0.01,,2013-05-06 07:42:00,
2013-05-06 02:52:00,48.0,45.0,30.13,NNW,342,1.0,8.0,90,0.00,,,0.01,,2013-05-06 07:52:00,
2013-05-06 03:02:00,48.0,45.0,30.12,NNW,333,1.0,8.0,90,0.00,,,0.01,,2013-05-06 08:02:00,
2013-05-06 03:12:00,48.0,45.0,30.12,NNW,333,1.0,8.0,90,0.00,,,0.01,,2013-05-06 08:12:00,
2013-05-06 03:22:00,48.0,45.0,30.12,WNW,298,1.0,6.0,91,0.00,,,0.01,,2013-05-06 08:22:00,
2013-05-06 03:31:00,48.0,45.0,30.13,NNW,336,2.0,7.0,91,0.00,,,0.01,,2013-05-06 08:31:00,
2013-05-06 03:41:00,48.0,45.0,30.13,NNW,336,2.0,7.0,91,0.00,,,0.01,,2013-05-06 08:41:00,
2013-05-06 03:52:00,48.0,45.0,30.12,North,355,0.0,7.0,91,0.00,,,0.01,,2013-05-06 08:52:00,
2013-05-06 04:01:00,48.0,45.0,30.13,North,355,3.0,8.0,91,0.00,,,0.01,,2013-05-06 09:01:00,
2013-05-06 04:11:00,48.0,45.0,30.13,North,355,3.0,8.0,91,0.00,,,0.01,,2013-05-06 09:11:00,
2013-05-06 04:22:00,48.0,45.0,30.13,NW,313,1.0,9.0,91,0.00,,,0.01,,2013-05-06 09:22:00,
2013-05-06 04:33:00,48.0,45.0,30.13,NNW,340,1.0,6.0,91,0.00,,,0.01,,2013-05-06 09:33:00,
2013-05-06 04:42:00,48.0,45.0,30.13,NNW,340,1.0,6.0,91,0.00,,,0.01,,2013-05-06 09:42:00,
2013-05-06 04:53:00,48.0,45.0,30.14,NNE,32,0.0,8.0,91,0.00,,,0.01,,2013-05-06 09:53:00,
2013-05-06 05:02:00,48.0,45.0,30.14,North,5,2.0,6.0,91,0.00,,,0.01,,2013-05-06 10:02:00,
2013-05-06 05:12:00,48.0,45.0,30.14,North,5,2.0,6.0,91,0.00,,,0.01,,2013-05-06 10:12:00,
2013-05-06 05:22:00,47.0,45.0,30.14,North,5,0.0,5.0,91,0.00,,,0.01,,2013-05-06 10:22:00,
2013-05-06 05:33:00,47.0,45.0,30.14,NNW,341,1.0,5.0,91,0.00,,,0.01,,2013-05-06 10:33:00,
2013-05-06 05:41:00,47.0,45.0,30.14,NNW,341,1.0,5.0,91,0.00,,,0.01,,2013-05-06 10:41:00,
2013-05-06 05:52:00,47.0,45.0,30.14,NNW,334,2.0,9.0,91,0.00,,,0.01,,2013-05-06 10:52:00,
2013-05-06 06:02:00,47.0,45.0,30.14,NNW,329,1.0,7.0,92,0.00,,,0.01,,2013-05-06 11:02:00,
2013-05-06 06:12:00,47.0,45.0,30.14,NNW,329,1.0,7.0,92,0.00,,,0.01,,2013-05-06 11:12:00,
2013-05-06 06:22:00,47.0,45.0,30.14,NW,321,0.0,7.0,92,0.00,,,0.01,,2013-05-06 11:22:00,
2013-05-06 06:31:00,47.0,45.0,30.14,NNW,330,3.0,10.0,92,0.00,,,0.01,,2013-05-06 11:31:00,
2013-05-06 06:42:00,47.0,45.0,30.14,NNW,330,3.0,10.0,92,0.00,,,0.01,,2013-05-06 11:42:00,
2013-05-06 06:52:00,47.0,45.0,30.15,North,355,1.0,9.0,92,0.00,,,0.01,,2013-05-06 11:52:00,
2013-05-06 07:01:00,47.0,45.0,30.15,NNW,331,1.0,9.0,92,0.00,,,0.01,,2013-05-06 12:01:00,
2013-05-06 07:12:00,47.0,45.0,30.15,NNW,331,1.0,9.0,92,0.00,,,0.01,,2013-05-06 12:12:00,
2013-05-06 07:21:00,47.0,45.0,30.16,NNW,338,1.0,8.0,92,0.00,,,0.01,,2013-05-06 12:21:00,
2013-05-06 07:32:00,47.0,45.0,30.16,NNW,342,1.0,7.0,92,0.00,,,0.01,,2013-05-06 12:32:00,
2013-05-06 07:42:00,47.0,45.0,30.16,NNW,342,1.0,7.0,92,0.00,,,0.01,,2013-05-06 12:42:00,
2013-05-06 07:51:00,47.0,45.0,30.16,NNW,340,2.0,10.0,92,0.00,,,0.01,,2013-05-06 12:51:00,
2013-05-06 08:01:00,48.0,46.0,30.16,NW,315,4.0,10.0,92,0.00,,,0.01,,2013-05-06 13:01:00,
2013-05-06 08:11:00,48.0,46.0,30.16,NW,315,4.0,10.0,92,0.00,,,0.01,,2013-05-06 13:11:00,
2013-05-06 08:21:00,48.0,46.0,30.16,NNW,334,1.0,7.0,92,0.00,,,0.01,,2013-05-06 13:21:00,
2013-05-06 08:32:00,48.0,46.0,30.16,NW,321,1.0,7.0,92,0.00,,,0.00,,2013-05-06 13:32:00,
2013-05-06 08:42:00,48.0,46.0,30.16,NW,321,1.0,7.0,92,0.00,,,0.00,,2013-05-06 13:42:00,
2013-05-06 08:52:00,48.0,46.0,30.17,North,355,1.0,9.0,92,0.00,,,0.00,,2013-05-06 13:52:00,
2013-05-06 09:01:00,48.0,46.0,30.16,NW,313,1.0,6.0,92,0.00,,,0.00,,2013-05-06 14:01:00,
2013-05-06 09:11:00,48.0,46.0,30.16,NW,313,1.0,6.0,92,0.00,,,0.00,,2013-05-06 14:11:00,
2013-05-06 09:21:00,48.0,46.0,30.17,NNW,333,1.0,6.0,92,0.00,,,0.00,,2013-05-06 14:21:00,
2013-05-06 09:32:00,49.0,47.0,30.17,NNW,343,3.0,9.0,92,0.00,,,0.00,,2013-05-06 14:32:00,
2013-05-06 09:42:00,49.0,47.0,30.17,NNW,343,3.0,9.0,92,0.00,,,0.00,,2013-05-06 14:42:00,
2013-05-06 09:51:00,49.0,47.0,30.17,NNW,328,2.0,8.0,92,0.00,,,0.00,,2013-05-06 14:51:00,
2013-05-06 10:01:00,49.0,47.0,30.17,North,355,1.0,6.0,92,0.00,,,0.00,,2013-05-06 15:01:00,
2013-05-06 10:11:00,49.0,47.0,30.17,North,355,1.0,6.0,92,0.00,,,0.00,,2013-05-06 15:11:00,
2013-05-06 10:21:00,49.0,47.0,30.17,NNW,340,2.0,7.0,92,0.00,,,0.00,,2013-05-06 15:21:00,
2013-05-06 10:33:00,50.0,47.0,30.17,NNW,347,0.0,10.0,91,0.00,,,0.00,,2013-05-06 15:33:00,
2013-05-06 10:42:00,50.0,47.0,30.17,NNW,347,0.0,10.0,91,0.00,,,0.00,,2013-05-06 15:42:00,
2013-05-06 10:53:00,50.0,47.0,30.18,NNW,346,2.0,7.0,91,0.00,,,0.00,,2013-05-06 15:53:00,
2013-05-06 11:03:00,50.0,47.0,30.18,NW,304,2.0,8.0,91,0.00,,,0.00,,2013-05-06 16:03:00,
2013-05-06 11:13:00,50.0,47.0,30.18,NW,304,2.0,8.0,91,0.00,,,0.00,,2013-05-06 16:13:00,
2013-05-06 11:23:00,50.0,47.0,30.18,NNW,343,1.0,5.0,91,0.00,,,0.00,,2013-05-06 16:23:00,
2013-05-06 11:32:00,51.0,48.0,30.18,NNE,15,0.0,6.0,91,0.00,,,0.00,,2013-05-06 16:32:00,
2013-05-06 11:42:00,51.0,48.0,30.18,NNE,15,0.0,6.0,91,0.00,,,0.00,,2013-05-06 16:42:00,
2013-05-06 11:52:00,51.0,48.0,30.18,North,5,1.0,6.0,89,0.00,,,0.00,,2013-05-06 16:52:00,
2013-05-06 12:03:00,52.0,49.0,30.17,NNE,18,2.0,8.0,88,0.00,,,0.00,,2013-05-06 17:03:00,
2013-05-06 12:12:00,52.0,49.0,30.17,NNE,18,2.0,8.0,88,0.00,,,0.00,,2013-05-06 17:12:00,
2013-05-06 12:23:00,53.0,49.0,30.17,NNW,340,1.0,5.0,87,0.00,,,0.00,,2013-05-06 17:23:00,
2013-05-06 12:31:00,53.0,49.0,30.18,NNW,341,1.0,6.0,86,0.00,,,0.00,,2013-05-06 17:31:00,
2013-05-06 12:42:00,53.0,49.0,30.18,NNW,341,1.0,6.0,86,0.00,,,0.00,,2013-05-06 17:42:00,
2013-05-06 12:52:00,53.0,49.0,30.18,NNE,19,0.0,4.0,86,0.00,,,0.00,,2013-05-06 17:52:00,
2013-05-06 13:01:00,54.0,50.0,30.17,North,360,1.0,5.0,85,0.00,,,0.00,,2013-05-06 18:01:00,
2013-05-06 13:12:00,54.0,50.0,30.17,North,360,1.0,5.0,85,0.00,,,0.00,,2013-05-06 18:12:00,
2013-05-06 13:21:00,54.0,49.0,30.17,North,355,0.0,4.0,84,0.00,,,0.00,,2013-05-06 18:21:00,
2013-05-06 13:31:00,55.0,50.0,30.16,NNW,340,0.0,4.0,83,0.00,,,0.00,,2013-05-06 18:31:00,
2013-05-06 13:43:00,55.0,50.0,30.16,NNW,340,0.0,4.0,83,0.00,,,0.00,,2013-05-06 18:43:00,
2013-05-06 13:52:00,56.0,50.0,30.16,NNW,327,1.0,7.0,80,0.00,,,0.00,,2013-05-06 18:52:00,
2013-05-06 14:01:00,57.0,51.0,30.16,NW,323,0.0,6.0,80,0.00,,,0.00,,2013-05-06 19:01:00,
2013-05-06 14:11:00,57.0,51.0,30.16,NW,323,0.0,6.0,80,0.00,,,0.00,,2013-05-06 19:11:00,
2013-05-06 14:22:00,58.0,52.0,30.16,NW,304,0.0,6.0,80,0.00,,,0.00,,2013-05-06 19:22:00,
2013-05-06 14:32:00,59.0,51.0,30.15,NNW,341,2.0,8.0,76,0.00,,,0.00,,2013-05-06 19:32:00,
2013-05-06 14:41:00,59.0,51.0,30.15,NNW,341,2.0,8.0,76,0.00,,,0.00,,2013-05-06 19:41:00,
2013-05-06 14:52:00,60.0,52.0,30.15,NNW,330,0.0,10.0,75,0.00,,,0.00,,2013-05-06 19:52:00,
2013-05-06 15:02:00,61.0,52.0,30.13,NNW,334,1.0,9.0,73,0.00,,,0.00,,2013-05-06 20:02:00,
2013-05-06 15:11:00,61.0,52.0,30.13,NNW,334,1.0,9.0,73,0.00,,,0.00,,2013-05-06 20:11:00,
2013-05-06 15:21:00,61.0,52.0,30.13,NNW,345,1.0,8.0,72,0.00,,,0.00,,2013-05-06 20:21:00,
2013-05-06 15:32:00,62.0,52.0,30.12,NW,321,1.0,8.0,70,0.00,,,0.00,,2013-05-06 20:32:00,
2013-05-06 15:42:00,62.0,52.0,30.12,NW,321,1.0,8.0,70,0.00,,,0.00,,2013-05-06 20:42:00,
2013-05-06 15:52:00,63.0,53.0,30.12,NNW,348,1.0,6.0,70,0.00,,,0.00,,2013-05-06 20:52:00,
2013-05-06 16:01:00,63.0,53.0,30.11,NW,304,1.0,9.0,69,0.00,,,0.00,,2013-05-06 21:01:00,
2013-05-06 16:11:00,63.0,53.0,30.11,NW,304,1.0,9.0,69,0.00,,,0.00,,2013-05-06 21:11:00,
2013-05-06 16:21:00,65.0,53.0,30.10,WNW,291,1.0,7.0,66,0.00,,,0.00,,2013-05-06 21:21:00,
2013-05-06 16:32:00,65.0,55.0,30.10,NW,323,0.0,8.0,69,0.00,,,0.00,,2013-05-06 21:32:00,
2013-05-06 16:42:00,65.0,55.0,30.10,NW,323,0.0,8.0,69,0.00,,,0.00,,2013-05-06 21:42:00,
2013-05-06 16:53:00,65.0,53.0,30.09,NW,322,2.0,7.0,66,0.00,,,0.00,,2013-05-06 21:53:00,
2013-05-06 17:03:00,64.0,53.0,30.09,North,355,2.0,6.0,67,0.00,,,0.00,,2013-05-06 22:03:00,
2013-05-06 17:12:00,64.0,53.0,30.09,North,355,2.0,6.0,67,0.00,,,0.00,,2013-05-06 22:12:00,
2013-05-06 17:22:00,65.0,53.0,30.09,NNW,340,2.0,9.0,66,0.00,,,0.00,,2013-05-06 22:22:00,
2013-05-06 17:33:00,66.0,53.0,30.09,East,88,0.0,6.0,64,0.00,,,0.00,,2013-05-06 22:33:00,
2013-05-06 17:45:00,66.0,53.0,30.09,East,88,0.0,6.0,64,0.00,,,0.00,,2013-05-06 22:45:00,
2013-05-06 17:52:00,66.0,53.0,30.09,NNW,344,0.0,5.0,64,0.00,,,0.00,,2013-05-06 22:52:00,
2013-05-06 18:03:00,67.0,54.0,30.09,NE,36,0.0,5.0,63,0.00,,,0.00,,2013-05-06 23:03:00,
2013-05-06 18:12:00,67.0,54.0,30.09,NE,36,0.0,5.0,63,0.00,,,0.00,,2013-05-06 23:12:00,
2013-05-06 18:22:00,67.0,54.0,30.08,NNW,345,0.0,6.0,63,0.00,,,0.00,,2013-05-06 23:22:00,
2013-05-06 18:32:00,67.0,54.0,30.09,NE,42,0.0,5.0,63,0.00,,,0.00,,2013-05-06 23:32:00,
2013-05-06 18:41:00,67.0,54.0,30.09,NE,42,0.0,5.0,63,0.00,,,0.00,,2013-05-06 23:41:00,
2013-05-06 18:52:00,66.0,53.0,30.09,NE,35,0.0,5.0,62,0.00,,,0.00,,2013-05-06 23:52:00,
2013-05-06 19:01:00,65.0,53.0,30.08,NE,35,0.0,1.0,64,0.00,,,0.00,,2013-05-07 00:01:00,
2013-05-06 19:11:00,65.0,53.0,30.08,NE,35,0.0,1.0,64,0.00,,,0.00,,2013-05-07 00:11:00,
2013-05-06 19:21:00,65.0,53.0,30.08,NE,35,0.0,1.0,65,0.00,,,0.00,,2013-05-07 00:21:00,
2013-05-06 19:31:00,64.0,53.0,30.08,NE,35,0.0,4.0,67,0.00,,,0.00,,2013-05-07 00:31:00,
2013-05-06 19:41:00,64.0,53.0,30.08,NE,35,0.0,4.0,67,0.00,,,0.00,,2013-05-07 00:41:00,
2013-05-06 19:51:00,63.0,52.0,30.08,North,360,0.0,4.0,67,0.00,,,0.00,,2013-05-07 00:51:00,
2013-05-06 20:01:00,62.0,52.0,30.09,North,360,0.0,3.0,69,0.00,,,0.00,,2013-05-07 01:01:00,
2013-05-06 20:11:00,62.0,52.0,30.09,North,360,0.0,3.0,69,0.00,,,0.00,,2013-05-07 01:11:00,
2013-05-06 20:21:00,62.0,52.0,30.09,North,5,0.0,0.0,69,0.00,,,0.00,,2013-05-07 01:21:00,
2013-05-06 20:32:00,61.0,52.0,30.09,North,360,0.0,0.0,71,0.00,,,0.00,,2013-05-07 01:32:00,
2013-05-06 20:42:00,61.0,52.0,30.09,North,360,0.0,0.0,71,0.00,,,0.00,,2013-05-07 01:42:00,
2013-05-06 20:52:00,60.0,51.0,30.09,North,5,0.0,0.0,73,0.00,,,0.00,,2013-05-07 01:52:00,
2013-05-06 21:02:00,59.0,51.0,30.10,North,5,0.0,0.0,75,0.00,,,0.00,,2013-05-07 02:02:00,
2013-05-06 21:11:00,59.0,51.0,30.10,North,5,0.0,0.0,75,0.00,,,0.00,,2013-05-07 02:11:00,
2013-05-06 21:21:00,58.0,51.0,30.10,North,5,0.0,0.0,77,0.00,,,0.00,,2013-05-07 02:21:00,
2013-05-06 21:31:00,57.0,51.0,30.11,North,5,0.0,0.0,79,0.00,,,0.00,,2013-05-07 02:31:00,
2013-05-06 21:41:00,57.0,51.0,30.11,North,5,0.0,0.0,79,0.00,,,0.00,,2013-05-07 02:41:00,
2013-05-06 21:52:00,56.0,50.0,30.11,North,5,0.0,0.0,81,0.00,,,0.00,,2013-05-07 02:52:00,
2013-05-06 22:01:00,55.0,50.0,30.12,North,360,0.0,0.0,83,0.00,,,0.00,,2013-05-07 03:01:00,
2013-05-06 22:11:00,55.0,50.0,30.12,North,360,0.0,0.0,83,0.00,,,0.00,,2013-05-07 03:11:00,
2013-05-06 22:22:00,54.0,49.0,30.12,North,360,0.0,0.0,84,0.00,,,0.00,,2013-05-07 03:22:00,
2013-05-06 22:32:00,54.0,50.0,30.12,North,5,0.0,0.0,85,0.00,,,0.00,,2013-05-07 03:32:00,
2013-05-06 22:42:00,54.0,50.0,30.12,North,5,0.0,0.0,85,0.00,,,0.00,,2013-05-07 03:42:00,
2013-05-06 22:53:00,53.0,49.0,30.12,North,5,0.0,0.0,87,0.00,,,0.00,,2013-05-07 03:53:00,
2013-05-06 23:02:00,52.0,49.0,30.13,North,5,0.0,0.0,88,0.00,,,0.00,,2013-05-07 04:02:00,
2013-05-06 23:12:00,52.0,49.0,30.13,North,5,0.0,0.0,88,0.00,,,0.00,,2013-05-07 04:12:00,
2013-05-06 23:23:00,52.0,49.0,30.13,North,5,0.0,0.0,88,0.00,,,0.00,,2013-05-07 04:23:00,
2013-05-06 23:33:00,51.0,48.0,30.13,North,360,0.0,0.0,89,0.00,,,0.00,,2013-05-07 04:33:00,
2013-05-06 23:42:00,51.0,48.0,30.13,North,360,0.0,0.0,89,0.00,,,0.00,,2013-05-07 04:42:00,
2013-05-06 23:52:00,51.0,48.0,30.12,North,360,0.0,0.0,90,0.00,,,0.00,,2013-05-07 04:52:00,